When you browse on this site, cookies collect data to enhance your experience and personalize the content and advertising you see.
Visit our Privacy Policy to learn more. By continuing to use the site, you agree to this use of cookies and data.
  • In Deutschland
  • Länderverzeichnis
  • Für 7 Tage
  • Wassertemperatur
  • Satellitenkarten
  • Wetterkarte
  • Widgets
  • user-avatar
    Anmelden

    Stündliche Wetter Pinsk

    Heute, 25 Mai, Samstag

    Zeit Temperatur Niederschläge Wind Luftdruck Luftfeuchtigkeit
    00:00 +15°C° 0 mm 2 m/S 744 mmHg 93%
    01:00 +14°C° 0 mm 2 m/S 744 mmHg 93%
    02:00 +14°C° 0 mm 2 m/S 744 mmHg 94%
    03:00 +14°C° 0 mm 2 m/S 744 mmHg 95%
    04:00 +14°C° 0 mm 2 m/S 744 mmHg 95%
    05:00 +14°C° 0 mm 2 m/S 744 mmHg 96%
    06:00 +15°C° 0 mm 2 m/S 744 mmHg 92%
    07:00 +16°C° 0 mm 3 m/S 744 mmHg 89%
    08:00 +18°C° 0 mm 3 m/S 744 mmHg 85%
    09:00 +19°C° 0.1 mm 3 m/S 744 mmHg 79%
    10:00 +20°C° 0.1 mm 4 m/S 744 mmHg 73%
    11:00 +21°C° 0.1 mm 4 m/S 744 mmHg 66%
    12:00 +22°C° 0.2 mm 4 m/S 744 mmHg 65%
    13:00 +22°C° 0.2 mm 4 m/S 744 mmHg 63%
    14:00 +22°C° 0.2 mm 4 m/S 744 mmHg 61%
    15:00 +22°C° 0.4 mm 4 m/S 744 mmHg 64%
    16:00 +22°C° 0.4 mm 4 m/S 744 mmHg 66%
    17:00 +21°C° 0.4 mm 4 m/S 744 mmHg 68%
    18:00 +20°C° 0.2 mm 3 m/S 744 mmHg 73%
    19:00 +18°C° 0.2 mm 3 m/S 744 mmHg 79%
    20:00 +17°C° 0.2 mm 2 m/S 744 mmHg 84%
    21:00 +16°C° 0 mm 2 m/S 744 mmHg 85%
    22:00 +15°C° 0 mm 2 m/S 744 mmHg 87%
    23:00 +14°C° 0 mm 2 m/S 745 mmHg 89%

    Morgen, 26 Mai, Sonntag

    Zeit Temperatur Niederschläge Wind Luftdruck Luftfeuchtigkeit
    00:00 +14°C° 0 mm 2 m/S 745 mmHg 91%
    01:00 +13°C° 0 mm 2 m/S 745 mmHg 93%
    02:00 +13°C° 0 mm 2 m/S 745 mmHg 95%
    03:00 +12°C° 0 mm 2 m/S 746 mmHg 95%
    04:00 +12°C° 0 mm 2 m/S 746 mmHg 94%
    05:00 +11°C° 0 mm 1 m/S 746 mmHg 94%
    06:00 +13°C° 0 mm 2 m/S 746 mmHg 89%
    07:00 +14°C° 0 mm 2 m/S 746 mmHg 84%
    08:00 +15°C° 0 mm 2 m/S 746 mmHg 79%
    09:00 +17°C° 0 mm 3 m/S 746 mmHg 74%
    10:00 +18°C° 0 mm 4 m/S 746 mmHg 70%
    11:00 +19°C° 0 mm 5 m/S 746 mmHg 66%
    12:00 +20°C° 0 mm 5 m/S 746 mmHg 63%
    13:00 +20°C° 0 mm 6 m/S 746 mmHg 60%
    14:00 +21°C° 0 mm 6 m/S 746 mmHg 58%
    15:00 +21°C° 0 mm 5 m/S 746 mmHg 59%
    16:00 +20°C° 0 mm 5 m/S 745 mmHg 61%
    17:00 +20°C° 0 mm 5 m/S 745 mmHg 63%
    18:00 +19°C° 0 mm 4 m/S 745 mmHg 68%
    19:00 +18°C° 0 mm 3 m/S 745 mmHg 74%
    20:00 +16°C° 0 mm 2 m/S 746 mmHg 80%
    21:00 +15°C° 0 mm 2 m/S 746 mmHg 82%
    22:00 +14°C° 0 mm 2 m/S 746 mmHg 85%
    23:00 +14°C° 0 mm 2 m/S 746 mmHg 87%

    übermorgen, 27 Mai, Montag

    Zeit Temperatur Niederschläge Wind Luftdruck Luftfeuchtigkeit
    00:00 +13°C° 0 mm 2 m/S 746 mmHg 89%
    01:00 +12°C° 0 mm 3 m/S 746 mmHg 90%
    02:00 +12°C° 0 mm 3 m/S 746 mmHg 92%
    03:00 +13°C° 0 mm 2 m/S 746 mmHg 92%
    04:00 +13°C° 0 mm 2 m/S 746 mmHg 91%
    05:00 +13°C° 0 mm 2 m/S 746 mmHg 91%
    06:00 +14°C° 0 mm 3 m/S 746 mmHg 85%
    07:00 +17°C° 0 mm 3 m/S 747 mmHg 79%
    08:00 +19°C° 0 mm 4 m/S 747 mmHg 73%
    09:00 +20°C° 0 mm 4 m/S 747 mmHg 68%
    10:00 +22°C° 0 mm 4 m/S 747 mmHg 63%
    11:00 +23°C° 0 mm 4 m/S 747 mmHg 59%
    12:00 +23°C° 0.2 mm 5 m/S 746 mmHg 60%
    13:00 +25°C° 0.2 mm 5 m/S 746 mmHg 61%
    14:00 +25°C° 0.2 mm 5 m/S 746 mmHg 62%
    15:00 +25°C° 0.3 mm 5 m/S 746 mmHg 65%
    16:00 +25°C° 0.3 mm 5 m/S 746 mmHg 67%
    17:00 +25°C° 0.3 mm 4 m/S 745 mmHg 69%
    18:00 +23°C° 0.1 mm 4 m/S 745 mmHg 74%
    19:00 +21°C° 0.1 mm 3 m/S 745 mmHg 80%
    20:00 +20°C° 0.1 mm 3 m/S 745 mmHg 85%
    21:00 +19°C° 0.4 mm 3 m/S 745 mmHg 86%
    22:00 +19°C° 0.4 mm 3 m/S 745 mmHg 88%
    23:00 +18°C° 0.4 mm 3 m/S 745 mmHg 89%

    28 Mai, Dienstag

    Zeit Temperatur Niederschläge Wind Luftdruck Luftfeuchtigkeit
    00:00 +18°C° 0 mm 3 m/S 745 mmHg 90%
    01:00 +18°C° 0 mm 2 m/S 745 mmHg 90%
    02:00 +18°C° 0 mm 2 m/S 745 mmHg 90%
    03:00 +17°C° 0 mm 2 m/S 745 mmHg 90%
    04:00 +17°C° 0 mm 2 m/S 745 mmHg 90%
    05:00 +17°C° 0 mm 2 m/S 745 mmHg 91%
    06:00 +18°C° 0 mm 3 m/S 745 mmHg 89%
    07:00 +19°C° 0 mm 3 m/S 745 mmHg 87%
    08:00 +20°C° 0 mm 3 m/S 745 mmHg 85%
    09:00 +21°C° 0.2 mm 3 m/S 745 mmHg 82%
    10:00 +22°C° 0.2 mm 3 m/S 744 mmHg 79%
    11:00 +24°C° 0.2 mm 3 m/S 744 mmHg 76%
    12:00 +25°C° 0.7 mm 4 m/S 744 mmHg 72%
    13:00 +26°C° 0.7 mm 4 m/S 744 mmHg 68%
    14:00 +27°C° 0.7 mm 5 m/S 743 mmHg 64%
    15:00 +27°C° 1.7 mm 4 m/S 743 mmHg 68%
    16:00 +27°C° 1.7 mm 3 m/S 743 mmHg 72%
    17:00 +26°C° 1.7 mm 3 m/S 743 mmHg 76%
    18:00 +25°C° 1.6 mm 3 m/S 743 mmHg 80%
    19:00 +22°C° 1.6 mm 3 m/S 743 mmHg 83%
    20:00 +21°C° 1.6 mm 3 m/S 743 mmHg 87%
    21:00 +20°C° 0.7 mm 3 m/S 743 mmHg 88%
    22:00 +20°C° 0.7 mm 3 m/S 742 mmHg 89%
    23:00 +19°C° 0.7 mm 3 m/S 742 mmHg 90%

    29 Mai, Mittwoch

    Zeit Temperatur Niederschläge Wind Luftdruck Luftfeuchtigkeit
    00:00 +19°C° 0.6 mm 3 m/S 742 mmHg 92%
    01:00 +18°C° 0.6 mm 3 m/S 742 mmHg 93%
    02:00 +17°C° 0.6 mm 3 m/S 742 mmHg 94%
    03:00 +17°C° 0 mm 3 m/S 742 mmHg 95%
    04:00 +17°C° 0 mm 3 m/S 742 mmHg 96%
    05:00 +17°C° 0 mm 3 m/S 742 mmHg 96%
    06:00 +18°C° 0 mm 3 m/S 742 mmHg 92%
    07:00 +19°C° 0 mm 3 m/S 743 mmHg 88%
    08:00 +20°C° 0 mm 4 m/S 743 mmHg 83%
    09:00 +22°C° 0 mm 4 m/S 743 mmHg 78%
    10:00 +23°C° 0 mm 4 m/S 744 mmHg 73%
    11:00 +25°C° 0 mm 4 m/S 744 mmHg 69%
    12:00 +25°C° 1.7 mm 4 m/S 745 mmHg 72%
    13:00 +23°C° 1.7 mm 4 m/S 745 mmHg 75%
    14:00 +23°C° 1.7 mm 4 m/S 745 mmHg 79%
    15:00 +21°C° 0.5 mm 5 m/S 746 mmHg 82%
    16:00 +20°C° 0.5 mm 5 m/S 746 mmHg 85%
    17:00 +19°C° 0.5 mm 6 m/S 747 mmHg 88%
    18:00 +17°C° 0 mm 5 m/S 748 mmHg 88%
    19:00 +16°C° 0 mm 5 m/S 748 mmHg 88%
    20:00 +14°C° 0 mm 4 m/S 749 mmHg 88%
    21:00 +14°C° 0 mm 4 m/S 749 mmHg 85%
    22:00 +14°C° 0 mm 4 m/S 750 mmHg 82%
    23:00 +14°C° 0 mm 4 m/S 751 mmHg 79%

    30 Mai, Donnerstag

    Zeit Temperatur Niederschläge Wind Luftdruck Luftfeuchtigkeit
    00:00 +13°C° 0 mm 4 m/S 751 mmHg 77%
    01:00 +12°C° 0 mm 4 m/S 752 mmHg 75%
    02:00 +11°C° 0 mm 4 m/S 752 mmHg 72%
    03:00 +10°C° 0 mm 4 m/S 752 mmHg 74%
    04:00 +8°C° 0 mm 4 m/S 753 mmHg 75%
    05:00 +7°C° 0 mm 4 m/S 753 mmHg 76%
    06:00 +8°C° 0 mm 4 m/S 754 mmHg 75%
    07:00 +10°C° 0 mm 4 m/S 754 mmHg 74%
    08:00 +11°C° 0 mm 4 m/S 754 mmHg 72%
    09:00 +13°C° 0 mm 3 m/S 754 mmHg 68%
    10:00 +16°C° 0 mm 3 m/S 754 mmHg 64%
    11:00 +18°C° 0 mm 3 m/S 754 mmHg 60%
    12:00 +18°C° 0 mm 3 m/S 754 mmHg 57%
    13:00 +19°C° 0 mm 3 m/S 753 mmHg 54%
    14:00 +20°C° 0 mm 3 m/S 753 mmHg 51%
    15:00 +20°C° 0 mm 2 m/S 753 mmHg 53%
    16:00 +20°C° 0 mm 2 m/S 753 mmHg 54%
    17:00 +20°C° 0 mm 2 m/S 753 mmHg 55%
    18:00 +18°C° 0 mm 2 m/S 753 mmHg 61%
    19:00 +17°C° 0 mm 2 m/S 752 mmHg 66%
    20:00 +15°C° 0 mm 2 m/S 752 mmHg 72%
    21:00 +14°C° 0 mm 2 m/S 752 mmHg 72%
    22:00 +13°C° 0 mm 1 m/S 752 mmHg 72%
    23:00 +12°C° 0 mm 1 m/S 752 mmHg 72%
    Mehr zeigen